When you browse on this site, cookies collect data to enhance your experience and personalize the content and advertising you see.
Visit our Privacy Policy to learn more. By continuing to use the site, you agree to this use of cookies and data.
  • In Österreich
  • Länderverzeichnis
  • Für 7 Tage
  • Wassertemperatur
  • Satellitenkarten
  • Wetterkarte
  • News
  • Widgets
  • user-avatar
    Anmelden

    Stündliche Wetter Tuxtepec

    Heute, 13 Dezember, Donnerstag

    Zeit Temperatur Niederschläge Wind Luftdruck Luftfeuchtigkeit
    00:00 +20°C° 0 mm 2 m/S 758 mmHg 91%
    01:00 +20°C° 0 mm 2 m/S 758 mmHg 90%
    02:00 +20°C° 0 mm 2 m/S 757 mmHg 89%
    03:00 +20°C° 0 mm 1 m/S 757 mmHg 88%
    04:00 +20°C° 0 mm 1 m/S 757 mmHg 87%
    05:00 +20°C° 0 mm 1 m/S 757 mmHg 87%
    06:00 +20°C° 0 mm 1 m/S 757 mmHg 86%
    07:00 +22°C° 0 mm 1 m/S 757 mmHg 82%
    08:00 +23°C° 0 mm 1 m/S 757 mmHg 78%
    09:00 +25°C° 0 mm 2 m/S 757 mmHg 74%
    10:00 +27°C° 0 mm 2 m/S 756 mmHg 69%
    11:00 +29°C° 0 mm 2 m/S 756 mmHg 64%
    12:00 +31°C° 0 mm 2 m/S 755 mmHg 59%
    13:00 +31°C° 0 mm 2 m/S 755 mmHg 60%
    14:00 +31°C° 0 mm 2 m/S 754 mmHg 62%
    15:00 +32°C° 0 mm 2 m/S 753 mmHg 63%
    16:00 +30°C° 0 mm 2 m/S 753 mmHg 71%
    17:00 +28°C° 0 mm 1 m/S 754 mmHg 79%
    18:00 +26°C° 0 mm 1 m/S 754 mmHg 87%
    19:00 +26°C° 0 mm 1 m/S 755 mmHg 87%
    20:00 +25°C° 0 mm 1 m/S 755 mmHg 87%
    21:00 +25°C° 0 mm 2 m/S 756 mmHg 87%
    22:00 +24°C° 0.2 mm 2 m/S 757 mmHg 86%
    23:00 +24°C° 0.2 mm 1 m/S 757 mmHg 85%

    Morgen, 14 Dezember, Freitag

    Zeit Temperatur Niederschläge Wind Luftdruck Luftfeuchtigkeit
    00:00 +24°C° 0.2 mm 1 m/S 757 mmHg 85%
    01:00 +24°C° 0.3 mm 1 m/S 757 mmHg 85%
    02:00 +23°C° 0.3 mm 1 m/S 758 mmHg 85%
    03:00 +23°C° 0.3 mm 1 m/S 758 mmHg 86%
    04:00 +23°C° 0.3 mm 2 m/S 758 mmHg 87%
    05:00 +23°C° 0.3 mm 2 m/S 759 mmHg 88%
    06:00 +23°C° 0.3 mm 2 m/S 759 mmHg 90%
    07:00 +23°C° 0.3 mm 2 m/S 760 mmHg 89%
    08:00 +22°C° 0.3 mm 3 m/S 761 mmHg 88%
    09:00 +22°C° 0.3 mm 3 m/S 761 mmHg 87%
    10:00 +22°C° 0.1 mm 3 m/S 761 mmHg 86%
    11:00 +21°C° 0.1 mm 2 m/S 761 mmHg 85%
    12:00 +21°C° 0.1 mm 2 m/S 762 mmHg 85%
    13:00 +21°C° 0 mm 2 m/S 761 mmHg 84%
    14:00 +21°C° 0 mm 2 m/S 761 mmHg 82%
    15:00 +21°C° 0 mm 2 m/S 760 mmHg 81%
    16:00 +20°C° 0 mm 2 m/S 761 mmHg 82%
    17:00 +20°C° 0 mm 2 m/S 761 mmHg 83%
    18:00 +21°C° 0 mm 1 m/S 761 mmHg 84%
    19:00 +20°C° 0 mm 1 m/S 762 mmHg 83%
    20:00 +19°C° 0 mm 2 m/S 763 mmHg 83%
    21:00 +19°C° 0 mm 2 m/S 764 mmHg 83%
    22:00 +19°C° 0.1 mm 2 m/S 764 mmHg 83%
    23:00 +19°C° 0.1 mm 2 m/S 764 mmHg 83%

    übermorgen, 15 Dezember, Samstag

    Zeit Temperatur Niederschläge Wind Luftdruck Luftfeuchtigkeit
    00:00 +19°C° 0.1 mm 2 m/S 764 mmHg 84%
    01:00 +18°C° 0 mm 2 m/S 764 mmHg 84%
    02:00 +18°C° 0 mm 2 m/S 764 mmHg 84%
    03:00 +19°C° 0 mm 1 m/S 763 mmHg 85%
    04:00 +19°C° 0 mm 1 m/S 763 mmHg 85%
    05:00 +19°C° 0 mm 1 m/S 764 mmHg 84%
    06:00 +19°C° 0 mm 1 m/S 764 mmHg 84%
    07:00 +20°C° 0 mm 1 m/S 764 mmHg 84%
    08:00 +20°C° 0 mm 1 m/S 765 mmHg 83%
    09:00 +20°C° 0 mm 1 m/S 765 mmHg 83%
    10:00 +21°C° 0 mm 1 m/S 765 mmHg 81%
    11:00 +21°C° 0 mm 1 m/S 765 mmHg 79%
    12:00 +22°C° 0 mm 1 m/S 764 mmHg 77%
    13:00 +22°C° 0 mm 1 m/S 763 mmHg 74%
    14:00 +23°C° 0 mm 1 m/S 762 mmHg 72%
    15:00 +24°C° 0 mm 1 m/S 762 mmHg 69%
    16:00 +23°C° 0.1 mm 1 m/S 762 mmHg 74%
    17:00 +21°C° 0.1 mm 1 m/S 762 mmHg 78%
    18:00 +20°C° 0.1 mm 1 m/S 762 mmHg 83%
    19:00 +20°C° 0 mm 1 m/S 763 mmHg 84%
    20:00 +20°C° 0 mm 1 m/S 764 mmHg 85%
    21:00 +20°C° 0 mm 1 m/S 765 mmHg 86%
    22:00 +20°C° 0 mm 1 m/S 765 mmHg 86%
    23:00 +20°C° 0 mm 1 m/S 765 mmHg 86%

    16 Dezember, Sonntag

    Zeit Temperatur Niederschläge Wind Luftdruck Luftfeuchtigkeit
    00:00 +19°C° 0 mm 1 m/S 765 mmHg 86%
    01:00 +19°C° 0 mm 1 m/S 765 mmHg 87%
    02:00 +19°C° 0 mm 1 m/S 764 mmHg 87%
    03:00 +18°C° 0 mm 1 m/S 764 mmHg 88%
    04:00 +18°C° 0 mm 1 m/S 764 mmHg 88%
    05:00 +18°C° 0 mm 1 m/S 764 mmHg 88%
    06:00 +18°C° 0 mm 1 m/S 765 mmHg 89%
    07:00 +19°C° 0 mm 1 m/S 765 mmHg 85%
    08:00 +20°C° 0 mm 1 m/S 765 mmHg 81%
    09:00 +21°C° 0 mm 1 m/S 766 mmHg 77%
    10:00 +23°C° 0 mm 1 m/S 765 mmHg 72%
    11:00 +24°C° 0 mm 1 m/S 765 mmHg 68%
    12:00 +25°C° 0 mm 1 m/S 764 mmHg 63%
    13:00 +25°C° 0 mm 1 m/S 763 mmHg 64%
    14:00 +26°C° 0 mm 1 m/S 762 mmHg 64%
    15:00 +26°C° 0 mm 1 m/S 761 mmHg 65%
    16:00 +24°C° 0 mm 1 m/S 762 mmHg 70%
    17:00 +23°C° 0 mm 1 m/S 762 mmHg 76%
    18:00 +22°C° 0 mm 1 m/S 763 mmHg 82%
    19:00 +21°C° 0.1 mm 1 m/S 763 mmHg 84%
    20:00 +21°C° 0.1 mm 1 m/S 764 mmHg 85%
    21:00 +20°C° 0.1 mm 1 m/S 765 mmHg 87%
    22:00 +20°C° 0 mm 1 m/S 765 mmHg 87%
    23:00 +20°C° 0 mm 1 m/S 765 mmHg 87%

    17 Dezember, Montag

    Zeit Temperatur Niederschläge Wind Luftdruck Luftfeuchtigkeit
    00:00 +20°C° 0 mm 1 m/S 765 mmHg 87%
    01:00 +20°C° 0.1 mm 1 m/S 764 mmHg 87%
    02:00 +19°C° 0.1 mm 1 m/S 764 mmHg 88%
    03:00 +19°C° 0.1 mm 1 m/S 764 mmHg 88%
    04:00 +19°C° 0 mm 1 m/S 764 mmHg 88%
    05:00 +19°C° 0 mm 1 m/S 764 mmHg 88%
    06:00 +19°C° 0 mm 1 m/S 764 mmHg 88%
    07:00 +20°C° 0 mm 1 m/S 765 mmHg 84%
    08:00 +21°C° 0 mm 1 m/S 765 mmHg 80%
    09:00 +22°C° 0 mm 1 m/S 765 mmHg 77%
    10:00 +23°C° 0 mm 1 m/S 765 mmHg 72%
    11:00 +24°C° 0 mm 1 m/S 764 mmHg 67%
    12:00 +26°C° 0 mm 2 m/S 763 mmHg 62%
    13:00 +26°C° 0 mm 2 m/S 762 mmHg 63%
    14:00 +26°C° 0 mm 2 m/S 761 mmHg 64%
    15:00 +26°C° 0 mm 2 m/S 760 mmHg 65%
    16:00 +24°C° 0.1 mm 2 m/S 761 mmHg 72%
    17:00 +23°C° 0.1 mm 2 m/S 761 mmHg 78%
    18:00 +22°C° 0.1 mm 1 m/S 761 mmHg 85%
    19:00 +21°C° 0.1 mm 1 m/S 762 mmHg 86%
    20:00 +21°C° 0.1 mm 1 m/S 762 mmHg 88%
    21:00 +21°C° 0.1 mm 1 m/S 763 mmHg 89%
    22:00 +20°C° 0.1 mm 1 m/S 763 mmHg 89%
    23:00 +20°C° 0.1 mm 1 m/S 763 mmHg 90%

    18 Dezember, Dienstag

    Zeit Temperatur Niederschläge Wind Luftdruck Luftfeuchtigkeit
    00:00 +20°C° 0.1 mm 1 m/S 762 mmHg 90%
    01:00 +19°C° 0 mm 1 m/S 762 mmHg 90%
    02:00 +19°C° 0 mm 1 m/S 762 mmHg 91%
    03:00 +18°C° 0 mm 1 m/S 761 mmHg 92%
    04:00 +18°C° 0 mm 1 m/S 761 mmHg 92%
    05:00 +18°C° 0 mm 1 m/S 761 mmHg 91%
    06:00 +18°C° 0 mm 1 m/S 761 mmHg 91%
    07:00 +19°C° 0 mm 1 m/S 762 mmHg 87%
    08:00 +19°C° 0 mm 0 m/S 762 mmHg 82%
    09:00 +20°C° 0 mm 0 m/S 762 mmHg 78%
    10:00 +23°C° 0 mm 1 m/S 761 mmHg 73%
    11:00 +25°C° 0 mm 1 m/S 761 mmHg 68%
    12:00 +26°C° 0 mm 1 m/S 760 mmHg 63%
    13:00 +26°C° 0 mm 1 m/S 759 mmHg 63%
    14:00 +26°C° 0 mm 1 m/S 758 mmHg 63%
    15:00 +26°C° 0 mm 1 m/S 757 mmHg 63%
    16:00 +25°C° 0 mm 1 m/S 758 mmHg 69%
    17:00 +24°C° 0 mm 1 m/S 758 mmHg 75%
    18:00 +22°C° 0 mm 1 m/S 759 mmHg 80%
    19:00 +20°C° 0 mm 0 m/S 759 mmHg 81%
    20:00 +20°C° 0 mm 0 m/S 760 mmHg 83%
    21:00 +20°C° 0 mm 0 m/S 760 mmHg 84%
    22:00 +19°C° 0 mm 0 m/S 760 mmHg 85%
    23:00 +19°C° 0 mm 0 m/S 760 mmHg 87%
    Mehr zeigen